• In Belarus
  • List of Countries
  • For 7 days
  • Water Temperature
  • Satellite Maps
  • Weather Map
  • Weather Widgets
  • user-avatar
    Login

    Hourly Weather Bulle

    Today, 21 September, Friday

    Time Temperature Precipitation Wind Pressure Humidity
    00:00 +16°C° 0 mm 2 mps 693 mmHg 82%
    01:00 +16°C° 0 mm 2 mps 693 mmHg 81%
    02:00 +15°C° 0 mm 2 mps 692 mmHg 81%
    03:00 +15°C° 0 mm 2 mps 692 mmHg 81%
    04:00 +15°C° 0 mm 2 mps 692 mmHg 81%
    05:00 +15°C° 0 mm 2 mps 692 mmHg 81%
    06:00 +17°C° 0 mm 2 mps 693 mmHg 83%
    07:00 +19°C° 0 mm 3 mps 693 mmHg 73%
    08:00 +21°C° 0 mm 3 mps 693 mmHg 63%
    09:00 +23°C° 0 mm 4 mps 693 mmHg 53%
    10:00 +25°C° 0.1 mm 4 mps 693 mmHg 53%
    11:00 +25°C° 0.1 mm 4 mps 693 mmHg 52%
    12:00 +25°C° 0.1 mm 4 mps 693 mmHg 51%
    13:00 +23°C° 0.4 mm 4 mps 693 mmHg 59%
    14:00 +21°C° 0.4 mm 3 mps 693 mmHg 67%
    15:00 +20°C° 0.4 mm 3 mps 693 mmHg 75%
    16:00 +19°C° 0.6 mm 2 mps 693 mmHg 81%
    17:00 +18°C° 0.6 mm 2 mps 693 mmHg 86%
    18:00 +16°C° 0.6 mm 2 mps 694 mmHg 92%
    19:00 +16°C° 0.5 mm 2 mps 694 mmHg 93%
    20:00 +15°C° 0.5 mm 1 mps 695 mmHg 95%
    21:00 +15°C° 0.5 mm 1 mps 695 mmHg 97%
    22:00 +14°C° 0.2 mm 1 mps 695 mmHg 97%
    23:00 +14°C° 0.2 mm 1 mps 695 mmHg 97%

    Tomorrow, 22 September, Saturday

    Time Temperature Precipitation Wind Pressure Humidity
    00:00 +13°C° 0.2 mm 1 mps 695 mmHg 97%
    01:00 +13°C° 0 mm 1 mps 695 mmHg 97%
    02:00 +12°C° 0 mm 1 mps 695 mmHg 97%
    03:00 +12°C° 0 mm 1 mps 695 mmHg 97%
    04:00 +12°C° 0 mm 1 mps 695 mmHg 97%
    05:00 +12°C° 0 mm 1 mps 696 mmHg 97%
    06:00 +12°C° 0 mm 1 mps 696 mmHg 96%
    07:00 +13°C° 0 mm 1 mps 696 mmHg 90%
    08:00 +15°C° 0 mm 1 mps 696 mmHg 83%
    09:00 +16°C° 0 mm 1 mps 697 mmHg 77%
    10:00 +18°C° 0 mm 1 mps 697 mmHg 68%
    11:00 +20°C° 0 mm 1 mps 697 mmHg 59%
    12:00 +21°C° 0 mm 1 mps 697 mmHg 50%
    13:00 +20°C° 0 mm 2 mps 696 mmHg 50%
    14:00 +20°C° 0 mm 2 mps 696 mmHg 51%
    15:00 +20°C° 0 mm 2 mps 696 mmHg 51%
    16:00 +19°C° 0 mm 1 mps 696 mmHg 58%
    17:00 +16°C° 0 mm 1 mps 696 mmHg 66%
    18:00 +14°C° 0 mm 0 mps 696 mmHg 73%
    19:00 +14°C° 0 mm 1 mps 696 mmHg 73%
    20:00 +14°C° 0 mm 1 mps 696 mmHg 74%
    21:00 +14°C° 0 mm 1 mps 697 mmHg 74%
    22:00 +14°C° 0 mm 1 mps 697 mmHg 72%
    23:00 +15°C° 0 mm 1 mps 697 mmHg 70%

    Day after tomorrow, 23 September, Sunday

    Time Temperature Precipitation Wind Pressure Humidity
    00:00 +15°C° 0 mm 2 mps 697 mmHg 68%
    01:00 +16°C° 0 mm 2 mps 697 mmHg 68%
    02:00 +16°C° 0 mm 2 mps 696 mmHg 68%
    03:00 +16°C° 0 mm 2 mps 696 mmHg 68%
    04:00 +16°C° 0 mm 2 mps 696 mmHg 70%
    05:00 +16°C° 0 mm 2 mps 696 mmHg 72%
    06:00 +16°C° 0 mm 2 mps 696 mmHg 74%
    07:00 +17°C° 0 mm 2 mps 697 mmHg 72%
    08:00 +19°C° 0 mm 2 mps 697 mmHg 69%
    09:00 +20°C° 0 mm 2 mps 697 mmHg 67%
    10:00 +23°C° 0 mm 2 mps 697 mmHg 64%
    11:00 +24°C° 0 mm 2 mps 697 mmHg 62%
    12:00 +25°C° 0 mm 3 mps 697 mmHg 60%
    13:00 +25°C° 0 mm 3 mps 696 mmHg 60%
    14:00 +25°C° 0 mm 3 mps 696 mmHg 61%
    15:00 +25°C° 0 mm 3 mps 695 mmHg 61%
    16:00 +24°C° 0.1 mm 3 mps 695 mmHg 69%
    17:00 +21°C° 0.1 mm 3 mps 694 mmHg 78%
    18:00 +19°C° 0.1 mm 3 mps 694 mmHg 86%
    19:00 +19°C° 0.5 mm 3 mps 694 mmHg 88%
    20:00 +18°C° 0.5 mm 3 mps 694 mmHg 91%
    21:00 +18°C° 0.5 mm 3 mps 694 mmHg 93%
    22:00 +18°C° 1.2 mm 3 mps 695 mmHg 94%
    23:00 +18°C° 1.2 mm 3 mps 695 mmHg 96%

    24 September, Monday

    Time Temperature Precipitation Wind Pressure Humidity
    00:00 +17°C° 1.2 mm 4 mps 695 mmHg 97%
    01:00 +17°C° 1 mm 3 mps 695 mmHg 97%
    02:00 +16°C° 1 mm 3 mps 695 mmHg 97%
    03:00 +15°C° 1 mm 2 mps 696 mmHg 97%
    04:00 +15°C° 0.3 mm 2 mps 696 mmHg 97%
    05:00 +14°C° 0.3 mm 2 mps 696 mmHg 97%
    06:00 +12°C° 0.3 mm 3 mps 696 mmHg 97%
    07:00 +12°C° 0.1 mm 3 mps 696 mmHg 95%
    08:00 +11°C° 0.1 mm 3 mps 697 mmHg 93%
    09:00 +11°C° 0.1 mm 4 mps 697 mmHg 91%
    10:00 +11°C° 0 mm 4 mps 697 mmHg 87%
    11:00 +12°C° 0 mm 4 mps 697 mmHg 83%
    12:00 +12°C° 0 mm 4 mps 697 mmHg 79%
    13:00 +12°C° 0 mm 4 mps 698 mmHg 76%
    14:00 +12°C° 0 mm 4 mps 698 mmHg 74%
    15:00 +12°C° 0 mm 5 mps 698 mmHg 72%
    16:00 +11°C° 0 mm 4 mps 698 mmHg 75%
    17:00 +10°C° 0 mm 4 mps 698 mmHg 78%
    18:00 +8°C° 0 mm 4 mps 698 mmHg 81%
    19:00 +7°C° 0 mm 4 mps 699 mmHg 81%
    20:00 +6°C° 0 mm 4 mps 699 mmHg 81%
    21:00 +6°C° 0 mm 4 mps 700 mmHg 82%
    22:00 +6°C° 0 mm 4 mps 700 mmHg 80%
    23:00 +5°C° 0 mm 4 mps 700 mmHg 78%

    25 September, Tuesday

    Time Temperature Precipitation Wind Pressure Humidity
    00:00 +5°C° 0 mm 4 mps 700 mmHg 76%
    01:00 +5°C° 0 mm 4 mps 700 mmHg 76%
    02:00 +5°C° 0 mm 4 mps 700 mmHg 77%
    03:00 +5°C° 0 mm 4 mps 700 mmHg 77%
    04:00 +5°C° 0 mm 4 mps 700 mmHg 78%
    05:00 +5°C° 0 mm 4 mps 700 mmHg 78%
    06:00 +5°C° 0 mm 4 mps 700 mmHg 79%
    07:00 +7°C° 0 mm 4 mps 700 mmHg 70%
    08:00 +10°C° 0 mm 4 mps 701 mmHg 60%
    09:00 +13°C° 0 mm 4 mps 701 mmHg 51%
    10:00 +14°C° 0 mm 4 mps 701 mmHg 48%
    11:00 +15°C° 0 mm 4 mps 701 mmHg 46%
    12:00 +17°C° 0 mm 4 mps 701 mmHg 43%
    13:00 +17°C° 0 mm 4 mps 701 mmHg 45%
    14:00 +17°C° 0 mm 3 mps 701 mmHg 46%
    15:00 +17°C° 0 mm 3 mps 701 mmHg 48%
    16:00 +14°C° 0 mm 3 mps 700 mmHg 58%
    17:00 +12°C° 0 mm 2 mps 700 mmHg 67%
    18:00 +9°C° 0 mm 2 mps 700 mmHg 76%
    19:00 +8°C° 0 mm 2 mps 701 mmHg 79%
    20:00 +8°C° 0 mm 2 mps 701 mmHg 81%
    21:00 +7°C° 0 mm 2 mps 701 mmHg 83%
    22:00 +7°C° 0 mm 2 mps 701 mmHg 82%
    23:00 +8°C° 0 mm 1 mps 701 mmHg 81%

    26 September, Wednesday

    Time Temperature Precipitation Wind Pressure Humidity
    00:00 +8°C° 0 mm 1 mps 702 mmHg 80%
    01:00 +9°C° 0 mm 1 mps 702 mmHg 78%
    02:00 +9°C° 0 mm 1 mps 702 mmHg 76%
    03:00 +9°C° 0 mm 1 mps 702 mmHg 74%
    04:00 +10°C° 0 mm 1 mps 702 mmHg 73%
    05:00 +10°C° 0 mm 1 mps 702 mmHg 72%
    06:00 +10°C° 0 mm 1 mps 702 mmHg 72%
    07:00 +14°C° 0 mm 1 mps 702 mmHg 64%
    08:00 +18°C° 0 mm 1 mps 703 mmHg 57%
    09:00 +21°C° 0 mm 1 mps 703 mmHg 49%
    10:00 +22°C° 0 mm 1 mps 703 mmHg 47%
    11:00 +23°C° 0 mm 1 mps 703 mmHg 46%
    12:00 +25°C° 0 mm 1 mps 703 mmHg 44%
    13:00 +24°C° 0 mm 1 mps 703 mmHg 45%
    14:00 +24°C° 0 mm 1 mps 702 mmHg 47%
    15:00 +24°C° 0 mm 1 mps 702 mmHg 49%
    16:00 +21°C° 0 mm 1 mps 701 mmHg 59%
    17:00 +18°C° 0 mm 1 mps 701 mmHg 69%
    18:00 +14°C° 0 mm 1 mps 700 mmHg 79%
    19:00 +14°C° 0 mm 1 mps 700 mmHg 78%
    20:00 +13°C° 0 mm 1 mps 700 mmHg 77%
    21:00 +13°C° 0 mm 1 mps 701 mmHg 76%
    22:00 +13°C° 0 mm 1 mps 700 mmHg 73%
    23:00 +12°C° 0 mm 1 mps 700 mmHg 70%
    Show more